Dewpoint
59 59 59 58 57 54 53 50 50 52 55 54 53 53 53 53 53 55 56 59 59 57 57 58 57 57 56 55 55 54 54 53 53 53 53 53 53 53 53 53 53 53 53
59 59 57 56 55 53 50 49 52 53 54 53 52 51 51 51 51 52 54 55 58 58 57 57 57 55 55 54 53 53 53 53 53 53 53 52 52 52 53 53 53 54 54
58 57 57 56 54 53 51 52 52 53 53 52 50 50 50 49 49 49 50 51 53 56 58 57 55 55 54 53 52 52 52 52 52 51 50 50 50 50 51 52 53 53 53
59 57 56 56 55 52 51 52 51 51 51 51 51 50 49 48 47 47 47 47 47 50 54 56 55 54 54 53 53 52 51 52 51 51 50 50 50 51 52 51 51 52 52
59 58 57 55 55 52 52 52 50 50 48 49 49 48 48 47 46 45 45 46 47 47 49 53 54 54 53 52 52 52 52 52 51 50 50 50 50 50 50 50 50 51 51
59 57 56 55 55 51 53 52 50 49 47 46 44 43 43 43 44 44 44 44 44 44 43 44 45 49 53 53 52 52 52 50 50 50 49 49 48 48 49 49 50 50 51
58 57 55 55 53 50 52 51 49 46 45 43 41 40 40 41 42 43 43 42 43 41 41 41 40 39 43 51 51 51 51 49 48 49 49 47 46 46 47 46 48 47 48
58 56 54 53 52 52 51 50 47 45 44 43 40 39 37 37 38 41 41 42 41 40 39 39 38 38 39 41 44 45 45 46 46 46 46 44 44 43 43 43 46 43 45
58 57 55 54 53 51 52 51 48 46 44 43 40 39 36 34 36 39 39 39 39 40 39 37 37 37 37 38 40 42 44 45 44 46 45 45 45 43 43 43 44 43 45
56 56 55 55 53 51 50 50 48 47 44 42 41 41 39 37 35 35 38 37 38 38 37 37 35 35 36 37 40 41 43 44 44 44 44 44 44 42 43 43 44 43 45
55 55 54 54 52 51 51 51 48 46 45 43 41 40 38 37 36 36 35 36 37 37 37 35 35 35 35 35 36 39 40 42 42 41 42 43 42 41 41 41 42 43 42
54 55 54 53 53 51 50 51 48 45 44 43 43 41 38 36 36 35 35 36 35 36 36 35 34 34 34 34 37 39 39 41 40 39 40 39 40 40 39 40 41 41 43
53 53 53 53 53 52 50 51 49 46 44 44 42 42 39 38 37 37 36 36 35 36 36 35 33 33 33 34 35 37 37 39 38 37 37 37 38 38 37 38 38 38 40
52 53 53 52 52 52 51 51 50 47 45 45 43 42 40 40 38 38 37 36 34 34 35 34 33 33 32 33 35 36 34 37 36 35 35 35 35 35 35 35 36 36 36
52 52 52 52 52 51 52 52 50 48 45 45 44 42 43 40 39 39 38 37 35 32 32 32 32 32 32 34 35 31 31 34 34 34 33 33 33 33 33 33 33 34 33
52 51 52 52 51 51 50 50 50 49 46 46 45 42 43 41 39 39 39 37 35 33 31 33 32 32 32 32 33 30 31 33 33 32 31 31 31 31 31 31 31 31 31
51 52 51 51 50 50 50 50 50 49 47 46 44 45 43 41 39 38 38 36 34 33 31 32 32 32 32 30 30 30 31 29 30 30 30 29 29 29 30 30 29 29 28
49 50 50 50 50 49 49 49 49 48 46 45 45 45 42 40 38 37 35 33 32 32 32 30 32 32 31 30 29 29 28 28 28 29 29 28 27 28 28 28 28 27 26
46 48 49 49 49 48 48 48 49 48 46 46 45 45 43 41 39 38 35 35 34 31 33 31 30 32 31 30 28 28 27 26 26 29 28 28 27 26 26 26 26 26 25
44 42 43 42 43 45 46 46 46 46 44 41 42 43 41 41 41 39 38 37 33 33 33 32 31 31 31 30 29 27 25 25 26 25 26 27 27 26 25 24 24 22 23
44 40 39 41 43 43 44 43 42 41 41 40 39 41 42 42 41 39 38 35 35 34 33 32 30 30 30 28 27 27 24 23 22 24 25 25 25 25 25 23 22 21 20
43 40 41 41 41 43 41 40 41 41 41 40 40 41 41 41 39 37 37 36 35 33 32 31 30 29 29 28 25 26 23 23 20 24 20 19 24 21 23 21 21 20 19
40 40 40 41 41 41 39 40 40 40 40 40 39 38 39 39 37 36 36 36 35 33 31 30 29 29 27 26 27 25 24 23 21 20 22 19 20 21 21 24 23 21 19
37 37 38 39 38 38 38 38 37 37 37 37 37 37 37 37 36 35 34 33 32 31 30 28 29 28 28 28 26 24 23 25 24 23 23 22 22 23 23 23 25 23 20
33 34 35 36 36 36 37 36 36 35 34 34 34 35 34 34 35 35 32 30 29 30 31 31 30 31 31 31 29 26 25 24 21 21 17 23 24 20 23 20 23 26 24
32 33 33 34 35 35 36 36 36 34 32 32 32 33 33 32 33 32 30 28 27 28 28 28 29 28 28 29 28 27 25 23 22 19 18 18 17 16 12 22 22 23 24
Lifted_Index
-3 -3 -3 -2 -1 -1 2 6 7 6 4 3 2 1 1 1 1 2 3 4 4 4 4 4 5 5 6 7 7 8 8 8 9 9 9 9 9 9 9 9 9 9 9
-4 -4 -3 -2 -2 -1 2 5 6 5 3 2 2 1 1 1 2 3 4 4 5 5 4 4 5 5 6 7 8 8 8 9 9 9 10 10 10 10 10 10 9 9 9
-4 -4 -3 -3 -2 -1 2 5 5 4 3 2 2 2 2 2 2 3 4 5 5 5 5 4 5 5 6 7 8 8 8 9 9 10 10 11 11 11 10 10 10 10 10
-4 -4 -4 -3 -3 -1 1 4 4 4 3 2 2 2 2 2 3 3 4 5 6 6 6 6 5 6 6 7 7 8 8 9 10 11 11 11 11 11 11 11 11 11 10
-4 -4 -4 -4 -3 -1 1 3 4 4 3 3 2 2 3 3 3 4 5 5 6 7 8 7 7 7 7 7 8 8 9 9 10 11 11 11 11 11 11 11 11 11 11
-3 -3 -4 -3 -3 -1 1 3 4 4 3 3 3 3 3 4 4 5 6 7 8 9 9 9 9 8 8 8 8 9 9 10 11 11 11 12 12 12 12 12 12 11 11
-2 -3 -3 -3 -3 -2 -0 2 3 3 3 4 4 4 4 4 6 8 9 10 10 10 10 10 10 10 10 10 10 10 10 11 12 12 12 12 13 13 13 13 12 12 12
-2 -2 -2 -2 -2 -2 -0 1 2 2 3 3 4 3 3 4 6 9 10 11 11 11 12 11 11 11 11 11 12 12 12 12 12 12 13 13 13 13 14 13 13 13 13
-1 -1 -2 -2 -2 -1 -0 1 1 1 1 2 4 3 2 3 5 8 10 11 11 12 12 12 12 12 12 12 13 13 13 13 13 13 13 13 14 14 14 14 14 13 13
0 -0 -0 -1 -1 -1 -1 0 1 1 0 1 2 3 4 4 5 7 9 11 11 12 12 13 13 13 13 14 14 15 14 14 14 14 14 14 14 14 14 14 14 14 13
-0 0 0 -0 -1 -1 -1 -0 1 1 0 0 1 3 4 6 7 8 8 9 10 12 12 12 13 14 15 16 16 16 15 15 15 15 15 15 15 15 15 15 15 14 14
-1 -0 -0 1 0 -0 -1 -0 1 1 0 0 1 2 4 6 8 8 8 7 9 11 12 13 13 14 16 17 17 17 17 17 17 16 16 16 16 15 15 15 15 15 15
0 -0 -0 0 1 1 1 1 1 1 1 1 2 3 5 7 8 8 7 7 8 10 12 13 13 14 15 16 17 18 18 18 18 17 17 17 17 17 16 16 16 16 16
1 0 -0 -0 0 1 2 2 2 2 2 2 2 4 6 7 8 8 7 7 7 9 10 11 13 14 15 15 17 18 19 18 18 18 18 18 18 18 18 17 17 17 17
0 0 0 0 0 1 1 2 3 3 3 3 3 4 6 7 8 8 7 7 7 7 8 9 11 13 14 15 16 18 19 19 19 18 18 18 18 18 18 18 18 18 18
0 0 1 1 1 0 1 1 3 3 3 4 4 5 6 7 7 7 7 7 7 7 8 9 10 12 14 15 16 18 19 19 19 19 18 18 18 18 18 18 18 19 19
1 1 1 1 1 1 1 1 2 3 3 3 4 6 6 7 7 7 7 8 8 8 8 9 11 12 13 14 16 17 18 18 19 19 19 19 19 19 18 18 19 19 20
1 1 2 2 2 2 1 1 2 2 3 3 4 6 6 7 7 7 7 8 8 9 9 10 11 13 13 14 15 16 16 17 18 19 19 19 19 19 19 19 20 20 21
1 1 2 2 3 3 2 2 2 2 3 3 4 5 6 7 7 7 8 8 9 9 10 10 12 13 14 14 15 15 15 16 17 18 19 19 19 19 19 20 21 21 22
1 1 1 2 2 3 2 2 1 2 2 3 4 5 7 8 8 8 8 9 9 10 10 11 11 12 13 14 14 14 14 15 16 17 18 18 19 19 19 20 20 21 21
2 1 1 1 2 2 2 1 1 2 2 3 5 6 7 8 8 8 9 9 10 10 10 10 10 11 11 12 12 13 13 14 15 16 17 17 18 18 19 19 20 20 20
2 2 2 2 2 2 1 1 2 2 3 4 5 6 7 7 7 8 9 9 10 9 9 9 9 10 10 11 11 12 12 13 14 15 16 16 17 18 18 18 19 19 19
3 2 2 2 2 2 2 2 2 3 3 4 5 6 7 7 8 8 9 9 9 9 9 9 8 9 10 11 11 12 12 13 14 15 15 15 16 17 17 18 18 19 19
4 4 3 3 3 3 3 3 3 4 4 5 5 6 7 8 8 9 9 9 9 9 9 8 8 9 10 11 12 12 13 13 14 15 15 14 15 16 16 17 18 18 18
6 6 5 5 4 4 4 4 4 5 6 6 7 7 8 8 9 9 9 9 9 8 9 10 10 10 11 12 13 13 14 13 13 14 14 14 14 15 15 17 18 18 18
8 7 7 6 5 5 4 4 5 6 6 7 8 8 8 9 9 9 9 9 8 8 9 11 12 12 12 13 14 14 14 13 13 13 14 14 14 14 15 16 17 18 18